Location: Albany
(35.0000°S, 118.0000°E)
Time: 15:57:09
(UTC-05:00)

Cosmos 1346 Rocket - Visible Passes

Search period start: 23 February 2017 00:00
Search period end: 05 March 2017 00:00
Orbit: 523 x 560 km, 81.2° (Epoch: 23 February)

Date Brightness Start Highest point End Pass type
(mag) Time Alt. Az. Time Alt. Az. Time Alt. Az.
23 Feb 6.2 16:03:39 10° SSE 16:06:24 17° ESE 16:09:08 10° ENE visible
24 Feb 6.2 15:56:38 10° SSE 15:59:29 18° ESE 16:02:18 10° ENE visible
25 Feb 6.1 15:49:36 10° SSE 15:52:33 19° ESE 15:55:28 10° ENE visible
26 Feb 5.9 15:42:35 10° SSE 15:45:37 19° ESE 15:48:37 10° ENE visible
27 Feb 5.8 15:35:34 10° SSE 15:38:41 20° ESE 15:41:46 10° ENE visible
28 Feb 5.7 15:28:34 10° SSE 15:31:45 21° ESE 15:34:54 10° NE visible
01 Mar 5.6 15:21:33 10° SSE 15:24:48 22° ESE 15:28:02 10° NE visible
02 Mar 5.4 15:14:33 10° SSE 15:17:52 23° ESE 15:21:09 10° NE visible
03 Mar 5.3 15:07:32 10° SSE 15:10:55 24° ESE 15:14:17 10° NE visible
04 Mar 5.2 15:00:32 10° SSE 15:03:58 25° ESE 15:07:23 10° NE visible
